"Sample Date","Sample Time","Sample Value","Units","Flow Rate","Number Channels","Micron Size 0","Counts/Channel 0","Micron Size 1","Counts/Channel 1","Micron Size 2","Counts/Channel 2","Micron Size 3","Counts/Channel 3","Micron Size 4","Counts/Channel 4","Micron Size 5","Counts/Channel 5","Micron Size 6","Counts/Channel 6","Micron Size 7","Counts/Channel 7","Micron Size 8","Counts/Channel 8","Micron Size 9","Counts/Channel 9","Micron Size 10","Counts/Channel 10","Micron Size 11","Counts/Channel 11","Micron Size 12","Counts/Channel 12","Micron Size 13","Counts/Channel 13","Micron Size 14","Counts/Channel 14","Micron Size 15","Counts/Channel 15","Micron Size 16","Counts/Channel 16","Micron Size 17","Counts/Channel 17","Micron Size 18","Counts/Channel 18","Micron Size 19","Counts/Channel 19","Micron Size 20","Counts/Channel 20","Micron Size 21","Counts/Channel 21","Micron Size 22","Counts/Channel 22","Micron Size 23","Counts/Channel 23","Micron Size 24","Counts/Channel 24","Micron Size 25","Counts/Channel 25","Micron Size 26","Counts/Channel 26","Micron Size 27","Counts/Channel 27","Micron Size 28","Counts/Channel 28","Micron Size 29","Counts/Channel 29","Micron Size 30","Counts/Channel 30","Micron Size 31","Counts/Channel 31"
"05/12/08","09:00:04",2500.000,"cc",28353.793,6,0.100,2023.000,0.200,431.000,0.300,41.000,0.500,4.000,1.000,1.000,5.000,0
"05/12/08","09:00:10",2211.000,"cc",28255.758,6,0.100,1785.000,0.200,392.000,0.300,32.000,0.500,2.000,1.000,0,5.000,0
"05/12/08","09:00:16",2213.000,"cc",28375.600,6,0.100,1778.000,0.200,394.000,0.300,33.000,0.500,8.000,1.000,0,5.000,0
"05/12/08","09:00:22",2111.000,"cc",28318.023,6,0.100,1697.000,0.200,377.000,0.300,33.000,0.500,3.000,1.000,1.000,5.000,0
"05/12/08","09:00:28",2191.000,"cc",28319.088,6,0.100,1778.000,0.200,367.000,0.300,42.000,0.500,4.000,1.000,0,5.000,0
"05/12/08","09:00:34",2099.000,"cc",28323.035,6,0.100,1651.000,0.200,407.000,0.300,36.000,0.500,5.000,1.000,0,5.000,0
"05/12/08","09:00:40",2187.000,"cc",28334.633,6,0.100,1739.000,0.200,406.000,0.300,35.000,0.500,6.000,1.000,1.000,5.000,0
"05/12/08","09:00:46",2012.000,"cc",28272.273,6,0.100,1581.000,0.200,379.000,0.300,49.000,0.500,3.000,1.000,0,5.000,0
"05/12/08","09:00:52",2035.000,"cc",28273.803,6,0.100,1667.000,0.200,337.000,0.300,25.000,0.500,6.000,1.000,0,5.000,0
"05/12/08","09:00:58",2057.000,"cc",28382.731,6,0.100,1676.000,0.200,332.000,0.300,39.000,0.500,9.000,1.000,1.000,5.000,0
"05/12/08","09:01:04",2271.000,"cc",28274.316,6,0.100,1853.000,0.200,366.000,0.300,47.000,0.500,5.000,1.000,0,5.000,0
"05/12/08","09:01:10",2328.000,"cc",28327.344,6,0.100,1878.000,0.200,381.000,0.300,56.000,0.500,13.000,1.000,0,5.000,0
"05/12/08","09:01:16",3741.000,"cc",28309.566,6,0.100,3054.000,0.200,615.000,0.300,59.000,0.500,13.000,1.000,0,5.000,0
"05/12/08","09:01:22",2815.000,"cc",28323.717,6,0.100,2271.000,0.200,486.000,0.300,51.000,0.500,7.000,1.000,0,5.000,0
"05/12/08","09:01:28",2443.000,"cc",28273.658,6,0.100,1985.000,0.200,407.000,0.300,43.000,0.500,7.000,1.000,1.000,5.000,0
"05/12/08","09:01:34",2529.000,"cc",28360.516,6,0.100,2073.000,0.200,413.000,0.300,36.000,0.500,6.000,1.000,1.000,5.000,0
"05/12/08","09:01:40",2245.000,"cc",28322.666,6,0.100,1841.000,0.200,366.000,0.300,34.000,0.500,4.000,1.000,0,5.000,0
"05/12/08","09:01:46",2266.000,"cc",28254.721,6,0.100,1878.000,0.200,358.000,0.300,27.000,0.500,3.000,1.000,0,5.000,0
"05/12/08","09:01:52",2430.000,"cc",28404.613,6,0.100,2010.000,0.200,370.000,0.300,44.000,0.500,6.000,1.000,0,5.000,0
"05/12/08","09:01:58",2485.000,"cc",28298.094,6,0.100,2045.000,0.200,398.000,0.300,38.000,0.500,4.000,1.000,0,5.000,0
"05/12/08","09:02:04",2625.000,"cc",28301.572,6,0.100,2151.000,0.200,426.000,0.300,43.000,0.500,4.000,1.000,1.000,5.000,0
"05/12/08","09:02:10",2792.000,"cc",28277.967,6,0.100,2313.000,0.200,431.000,0.300,41.000,0.500,7.000,1.000,0,5.000,0
"05/12/08","09:02:16",3981.000,"cc",28354.139,6,0.100,3346.000,0.200,580.000,0.300,49.000,0.500,5.000,1.000,1.000,5.000,0
"05/12/08","09:02:22",4700.000,"cc",28304.199,6,0.100,3995.000,0.200,645.000,0.300,54.000,0.500,6.000,1.000,0,5.000,0
"05/12/08","09:02:28",3450.000,"cc",28306.883,6,0.100,2869.000,0.200,528.000,0.300,47.000,0.500,6.000,1.000,0,5.000,0
"05/12/08","09:02:34",4876.000,"cc",28307.783,6,0.100,4068.000,0.200,737.000,0.300,59.000,0.500,12.000,1.000,0,5.000,0
"05/12/08","09:02:40",5514.000,"cc",28336.588,6,0.100,4592.000,0.200,830.000,0.300,72.000,0.500,19.000,1.000,1.000,5.000,0
"05/12/08","09:02:46",6015.000,"cc",28327.455,6,0.100,5045.000,0.200,875.000,0.300,81.000,0.500,14.000,1.000,0,5.000,0
"05/12/08","09:02:52",4546.000,"cc",28354.100,6,0.100,3819.000,0.200,659.000,0.300,58.000,0.500,10.000,1.000,0,5.000,0
"05/12/08","09:02:58",3331.000,"cc",28335.356,6,0.100,2766.000,0.200,511.000,0.300,47.000,0.500,6.000,1.000,1.000,5.000,0
"05/12/08","09:03:04",3261.000,"cc",28267.154,6,0.100,2745.000,0.200,475.000,0.300,35.000,0.500,6.000,1.000,0,5.000,0
"05/12/08","09:03:10",2525.000,"cc",28313.035,6,0.100,2096.000,0.200,383.000,0.300,43.000,0.500,3.000,1.000,0,5.000,0
"05/12/08","09:03:16",2907.000,"cc",28264.682,6,0.100,2417.000,0.200,452.000,0.300,33.000,0.500,5.000,1.000,0,5.000,0
"05/12/08","09:03:22",3871.000,"cc",28371.947,6,0.100,3245.000,0.200,562.000,0.300,56.000,0.500,7.000,1.000,1.000,5.000,0
"05/12/08","09:03:28",3364.000,"cc",28313.650,6,0.100,2793.000,0.200,498.000,0.300,66.000,0.500,7.000,1.000,0,5.000,0
"05/12/08","09:03:34",3951.000,"cc",28264.082,6,0.100,3271.000,0.200,592.000,0.300,76.000,0.500,12.000,1.000,0,5.000,0
"05/12/08","09:03:40",2694.000,"cc",28323.055,6,0.100,2218.000,0.200,433.000,0.300,36.000,0.500,7.000,1.000,0,5.000,0
"05/12/08","09:03:46",2907.000,"cc",28288.027,6,0.100,2405.000,0.200,444.000,0.300,54.000,0.500,4.000,1.000,0,5.000,0
"05/12/08","09:03:52",3457.000,"cc",28320.543,6,0.100,2855.000,0.200,549.000,0.300,46.000,0.500,7.000,1.000,0,5.000,0
"05/12/08","09:03:58",3072.000,"cc",28353.426,6,0.100,2572.000,0.200,451.000,0.300,44.000,0.500,5.000,1.000,0,5.000,0
"05/12/08","09:04:04",3199.000,"cc",28327.254,6,0.100,2630.000,0.200,518.000,0.300,42.000,0.500,8.000,1.000,1.000,5.000,0
"05/12/08","09:04:10",3230.000,"cc",28313.022,6,0.100,2679.000,0.200,500.000,0.300,47.000,0.500,4.000,1.000,0,5.000,0
"05/12/08","09:04:16",2837.000,"cc",28280.668,6,0.100,2336.000,0.200,464.000,0.300,32.000,0.500,5.000,1.000,0,5.000,0
"05/12/08","09:04:22",4104.000,"cc",28367.039,6,0.100,3419.000,0.200,622.000,0.300,52.000,0.500,11.000,1.000,0,5.000,0
"05/12/08","09:04:28",2853.000,"cc",28278.289,6,0.100,2390.000,0.200,414.000,0.300,42.000,0.500,7.000,1.000,0,5.000,0
"05/12/08","09:04:34",3434.000,"cc",28342.848,6,0.100,2884.000,0.200,490.000,0.300,49.000,0.500,11.000,1.000,0,5.000,0
"05/12/08","09:04:40",3130.000,"cc",28320.244,6,0.100,2579.000,0.200,499.000,0.300,44.000,0.500,8.000,1.000,0,5.000,0
"05/12/08","09:04:46",3305.000,"cc",28271.295,6,0.100,2715.000,0.200,505.000,0.300,69.000,0.500,16.000,1.000,0,5.000,0
"05/12/08","09:04:52",5759.000,"cc",28345.836,6,0.100,4830.000,0.200,838.000,0.300,69.000,0.500,22.000,1.000,0,5.000,0
"05/12/08","09:04:58",4563.000,"cc",28330.531,6,0.100,3796.000,0.200,687.000,0.300,64.000,0.500,15.000,1.000,1.000,5.000,0
"05/12/08","09:05:04",4494.000,"cc",28309.539,6,0.100,3785.000,0.200,634.000,0.300,59.000,0.500,16.000,1.000,0,5.000,0
"05/12/08","09:05:10",4075.000,"cc",28323.260,6,0.100,3403.000,0.200,605.000,0.300,64.000,0.500,3.000,1.000,0,5.000,0
"05/12/08","09:05:16",4097.000,"cc",28272.311,6,0.100,3419.000,0.200,617.000,0.300,50.000,0.500,11.000,1.000,0,5.000,0
"05/12/08","09:05:22",3881.000,"cc",28381.969,6,0.100,3245.000,0.200,579.000,0.300,50.000,0.500,7.000,1.000,0,5.000,0
"05/12/08","09:05:28",3117.000,"cc",28263.647,6,0.100,2596.000,0.200,471.000,0.300,43.000,0.500,7.000,1.000,0,5.000,0
"05/12/08","09:05:34",4292.000,"cc",28280.385,6,0.100,3599.000,0.200,632.000,0.300,51.000,0.500,8.000,1.000,2.000,5.000,0
"05/12/08","09:05:40",4139.000,"cc",28331.863,6,0.100,3478.000,0.200,599.000,0.300,53.000,0.500,8.000,1.000,1.000,5.000,0
"05/12/08","09:05:46",4608.000,"cc",28387.221,6,0.100,3885.000,0.200,660.000,0.300,53.000,0.500,10.000,1.000,0,5.000,0
"05/12/08","09:05:52",5616.000,"cc",28291.895,6,0.100,4719.000,0.200,813.000,0.300,74.000,0.500,10.000,1.000,0,5.000,0
"05/12/08","09:05:58",3567.000,"cc",28351.211,6,0.100,2971.000,0.200,532.000,0.300,58.000,0.500,6.000,1.000,0,5.000,0
"05/12/08","09:06:04",4003.000,"cc",28342.328,6,0.100,3322.000,0.200,615.000,0.300,59.000,0.500,7.000,1.000,0,5.000,0
"05/12/08","09:06:10",3683.000,"cc",28314.668,6,0.100,3061.000,0.200,561.000,0.300,52.000,0.500,9.000,1.000,0,5.000,0
"05/12/08","09:06:16",3722.000,"cc",28331.316,6,0.100,3086.000,0.200,560.000,0.300,63.000,0.500,12.000,1.000,1.000,5.000,0
"05/12/08","09:06:22",4455.000,"cc",28255.332,6,0.100,3788.000,0.200,608.000,0.300,55.000,0.500,4.000,1.000,0,5.000,0
"05/12/08","09:06:28",3750.000,"cc",28264.520,6,0.100,3137.000,0.200,559.000,0.300,52.000,0.500,2.000,1.000,0,5.000,0
"05/12/08","09:06:34",4020.000,"cc",28308.815,6,0.100,3381.000,0.200,596.000,0.300,38.000,0.500,4.000,1.000,1.000,5.000,0
"05/12/08","09:06:40",3746.000,"cc",28341.199,6,0.100,3134.000,0.200,558.000,0.300,47.000,0.500,7.000,1.000,0,5.000,0
"05/12/08","09:06:46",3913.000,"cc",28356.217,6,0.100,3265.000,0.200,596.000,0.300,43.000,0.500,9.000,1.000,0,5.000,0
"05/12/08","09:06:52",5368.000,"cc",28282.408,6,0.100,4542.000,0.200,767.000,0.300,52.000,0.500,7.000,1.000,0,5.000,0
"05/12/08","09:06:58",4399.000,"cc",28308.570,6,0.100,3734.000,0.200,612.000,0.300,42.000,0.500,11.000,1.000,0,5.000,0
"05/12/08","09:07:04",8137.000,"cc",28288.191,6,0.100,6936.000,0.200,1112.000,0.300,76.000,0.500,13.000,1.000,0,5.000,0
"05/12/08","09:07:10",10615.000,"cc",28292.172,6,0.100,9034.000,0.200,1465.000,0.300,103.000,0.500,12.000,1.000,1.000,5.000,0
"05/12/08","09:07:16",7175.000,"cc",28317.191,6,0.100,6108.000,0.200,985.000,0.300,71.000,0.500,11.000,1.000,0,5.000,0
"05/12/08","09:07:22",6127.000,"cc",28308.061,6,0.100,5240.000,0.200,825.000,0.300,55.000,0.500,6.000,1.000,1.000,5.000,0
"05/12/08","09:07:28",8387.000,"cc",28351.416,6,0.100,7186.000,0.200,1127.000,0.300,69.000,0.500,5.000,1.000,0,5.000,0
"05/12/08","09:07:34",7583.000,"cc",28309.272,6,0.100,6455.000,0.200,1049.000,0.300,72.000,0.500,7.000,1.000,0,5.000,0
"05/12/08","09:07:40",4759.000,"cc",28348.066,6,0.100,4002.000,0.200,691.000,0.300,62.000,0.500,4.000,1.000,0,5.000,0
"05/12/08","09:07:46",5586.000,"cc",28326.697,6,0.100,4657.000,0.200,854.000,0.300,64.000,0.500,9.000,1.000,2.000,5.000,0
"05/12/08","09:07:52",5770.000,"cc",28318.955,6,0.100,4816.000,0.200,847.000,0.300,96.000,0.500,11.000,1.000,0,5.000,0
"05/12/08","09:07:58",4605.000,"cc",28299.273,6,0.100,3850.000,0.200,685.000,0.300,55.000,0.500,15.000,1.000,0,5.000,0
"05/12/08","09:08:04",4980.000,"cc",28277.311,6,0.100,4174.000,0.200,702.000,0.300,91.000,0.500,13.000,1.000,0,5.000,0
"05/12/08","09:08:10",5100.000,"cc",28350.074,6,0.100,4232.000,0.200,785.000,0.300,68.000,0.500,14.000,1.000,1.000,5.000,0
"05/12/08","09:08:16",8502.000,"cc",28317.147,6,0.100,7153.000,0.200,1203.000,0.300,128.000,0.500,16.000,1.000,2.000,5.000,0
"05/12/08","09:08:22",5712.000,"cc",28318.561,6,0.100,4815.000,0.200,809.000,0.300,77.000,0.500,10.000,1.000,1.000,5.000,0
"05/12/08","09:08:28",5415.000,"cc",28341.072,6,0.100,4568.000,0.200,777.000,0.300,63.000,0.500,7.000,1.000,0,5.000,0
"05/12/08","09:08:34",8008.000,"cc",28303.934,6,0.100,6796.000,0.200,1101.000,0.300,94.000,0.500,16.000,1.000,1.000,5.000,0
"05/12/08","09:08:40",6105.000,"cc",28318.150,6,0.100,5099.000,0.200,905.000,0.300,78.000,0.500,22.000,1.000,1.000,5.000,0
"05/12/08","09:08:46",5387.000,"cc",28297.164,6,0.100,4467.000,0.200,821.000,0.300,84.000,0.500,15.000,1.000,0,5.000,0
"05/12/08","09:08:52",5935.000,"cc",28324.625,6,0.100,5033.000,0.200,815.000,0.300,81.000,0.500,6.000,1.000,0,5.000,0
"05/12/08","09:08:58",4507.000,"cc",28317.494,6,0.100,3763.000,0.200,667.000,0.300,66.000,0.500,11.000,1.000,0,5.000,0
"05/12/08","09:09:04",5463.000,"cc",28273.436,6,0.100,4571.000,0.200,806.000,0.300,74.000,0.500,12.000,1.000,0,5.000,0
"05/12/08","09:09:10",3792.000,"cc",28336.270,6,0.100,3188.000,0.200,552.000,0.300,48.000,0.500,4.000,1.000,0,5.000,0
"05/12/08","09:09:16",5371.000,"cc",28300.897,6,0.100,4536.000,0.200,758.000,0.300,68.000,0.500,9.000,1.000,0,5.000,0
"05/12/08","09:09:22",5406.000,"cc",28332.801,6,0.100,4573.000,0.200,762.000,0.300,67.000,0.500,4.000,1.000,0,5.000,0
"05/12/08","09:09:28",3811.000,"cc",28343.574,6,0.100,3219.000,0.200,533.000,0.300,55.000,0.500,3.000,1.000,1.000,5.000,0
"05/12/08","09:09:34",6835.000,"cc",28319.686,6,0.100,5822.000,0.200,928.000,0.300,74.000,0.500,10.000,1.000,1.000,5.000,0
"05/12/08","09:09:40",5587.000,"cc",28295.377,6,0.100,4759.000,0.200,747.000,0.300,69.000,0.500,10.000,1.000,2.000,5.000,0
"05/12/08","09:09:46",4280.000,"cc",28368.119,6,0.100,3560.000,0.200,637.000,0.300,69.000,0.500,14.000,1.000,0,5.000,0
"05/12/08","09:09:52",5560.000,"cc",28296.756,6,0.100,4764.000,0.200,721.000,0.300,66.000,0.500,9.000,1.000,0,5.000,0
"05/12/08","09:09:58",3830.000,"cc",28288.955,6,0.100,3251.000,0.200,526.000,0.300,43.000,0.500,9.000,1.000,1.000,5.000,0
"05/12/08","09:10:04",6973.000,"cc",28316.250,6,0.100,5970.000,0.200,925.000,0.300,66.000,0.500,12.000,1.000,0,5.000,0
"05/12/08","09:10:10",4241.000,"cc",28330.555,6,0.100,3570.000,0.200,594.000,0.300,65.000,0.500,11.000,1.000,1.000,5.000,0
"05/12/08","09:10:16",5397.000,"cc",28297.322,6,0.100,4577.000,0.200,744.000,0.300,62.000,0.500,14.000,1.000,0,5.000,0
"05/12/08","09:10:22",5156.000,"cc",28308.607,6,0.100,4380.000,0.200,698.000,0.300,67.000,0.500,11.000,1.000,0,5.000,0
"05/12/08","09:10:28",4670.000,"cc",28326.133,6,0.100,3960.000,0.200,646.000,0.300,54.000,0.500,10.000,1.000,0,5.000,0
"05/12/08","09:10:34",5228.000,"cc",28384.365,6,0.100,4452.000,0.200,705.000,0.300,66.000,0.500,5.000,1.000,0,5.000,0
"05/12/08","09:10:40",4669.000,"cc",28330.922,6,0.100,3963.000,0.200,635.000,0.300,59.000,0.500,10.000,1.000,2.000,5.000,0
"05/12/08","09:10:46",3900.000,"cc",28221.969,6,0.100,3266.000,0.200,577.000,0.300,53.000,0.500,3.000,1.000,1.000,5.000,0
"05/12/08","09:10:52",3431.000,"cc",28314.205,6,0.100,2879.000,0.200,488.000,0.300,56.000,0.500,7.000,1.000,1.000,5.000,0
"05/12/08","09:10:58",3417.000,"cc",28352.660,6,0.100,2841.000,0.200,524.000,0.300,37.000,0.500,14.000,1.000,1.000,5.000,0
"05/12/08","09:11:04",3099.000,"cc",28326.637,6,0.100,2625.000,0.200,428.000,0.300,37.000,0.500,9.000,1.000,0,5.000,0
"05/12/08","09:11:10",2524.000,"cc",28252.557,6,0.100,2087.000,0.200,401.000,0.300,29.000,0.500,7.000,1.000,0,5.000,0
"05/12/08","09:11:16",2731.000,"cc",28324.002,6,0.100,2313.000,0.200,383.000,0.300,29.000,0.500,6.000,1.000,0,5.000,0
"05/12/08","09:11:22",2594.000,"cc",28281.238,6,0.100,2155.000,0.200,401.000,0.300,36.000,0.500,2.000,1.000,0,5.000,0
"05/12/08","09:11:28",4379.000,"cc",28320.533,6,0.100,3706.000,0.200,613.000,0.300,48.000,0.500,12.000,1.000,0,5.000,0
"05/12/08","09:11:34",3408.000,"cc",28356.561,6,0.100,2861.000,0.200,497.000,0.300,44.000,0.500,6.000,1.000,0,5.000,0
"05/12/08","09:11:40",2837.000,"cc",28267.594,6,0.100,2374.000,0.200,408.000,0.300,48.000,0.500,7.000,1.000,0,5.000,0
"05/12/08","09:11:46",3489.000,"cc",28334.590,6,0.100,2920.000,0.200,510.000,0.300,52.000,0.500,7.000,1.000,0,5.000,0
"05/12/08","09:11:52",2658.000,"cc",28380.857,6,0.100,2190.000,0.200,426.000,0.300,35.000,0.500,7.000,1.000,0,5.000,0
"05/12/08","09:11:58",4774.000,"cc",28271.100,6,0.100,4053.000,0.200,670.000,0.300,44.000,0.500,7.000,1.000,0,5.000,0
"05/12/08","09:12:04",4039.000,"cc",28342.469,6,0.100,3398.000,0.200,593.000,0.300,40.000,0.500,8.000,1.000,0,5.000,0
"05/12/08","09:12:10",3680.000,"cc",28346.090,6,0.100,3093.000,0.200,526.000,0.300,53.000,0.500,7.000,1.000,1.000,5.000,0
"05/12/08","09:12:16",3405.000,"cc",28267.842,6,0.100,2863.000,0.200,495.000,0.300,40.000,0.500,7.000,1.000,0,5.000,0
"05/12/08","09:12:22",3610.000,"cc",28297.799,6,0.100,3035.000,0.200,533.000,0.300,36.000,0.500,6.000,1.000,0,5.000,0
"05/12/08","09:12:28",3513.000,"cc",28293.637,6,0.100,2993.000,0.200,471.000,0.300,44.000,0.500,5.000,1.000,0,5.000,0
"05/12/08","09:12:34",2949.000,"cc",28343.777,6,0.100,2482.000,0.200,427.000,0.300,30.000,0.500,9.000,1.000,1.000,5.000,0
"05/12/08","09:12:40",2796.000,"cc",28341.143,6,0.100,2333.000,0.200,421.000,0.300,39.000,0.500,3.000,1.000,0,5.000,0
"05/12/08","09:12:46",2882.000,"cc",28298.668,6,0.100,2418.000,0.200,421.000,0.300,41.000,0.500,2.000,1.000,0,5.000,0
"05/12/08","09:12:52",2580.000,"cc",28286.938,6,0.100,2170.000,0.200,363.000,0.300,41.000,0.500,6.000,1.000,0,5.000,0
"05/12/08","09:12:58",2473.000,"cc",28314.988,6,0.100,2083.000,0.200,351.000,0.300,36.000,0.500,3.000,1.000,0,5.000,0
"05/12/08","09:13:04",2563.000,"cc",28355.553,6,0.100,2146.000,0.200,373.000,0.300,34.000,0.500,10.000,1.000,0,5.000,0
"05/12/08","09:13:10",2499.000,"cc",28344.959,6,0.100,2071.000,0.200,382.000,0.300,41.000,0.500,4.000,1.000,1.000,5.000,0
"05/12/08","09:13:16",3574.000,"cc",28320.758,6,0.100,2974.000,0.200,551.000,0.300,46.000,0.500,3.000,1.000,0,5.000,0
"05/12/08","09:13:22",3139.000,"cc",28275.215,6,0.100,2635.000,0.200,449.000,0.300,45.000,0.500,10.000,1.000,0,5.000,0
"05/12/08","09:13:28",3212.000,"cc",28286.074,6,0.100,2690.000,0.200,470.000,0.300,43.000,0.500,9.000,1.000,0,5.000,0
"05/12/08","09:13:34",3272.000,"cc",28290.684,6,0.100,2737.000,0.200,476.000,0.300,51.000,0.500,8.000,1.000,0,5.000,0
"05/12/08","09:13:40",3336.000,"cc",28352.553,6,0.100,2788.000,0.200,506.000,0.300,37.000,0.500,4.000,1.000,1.000,5.000,0
"05/12/08","09:13:46",2570.000,"cc",28319.779,6,0.100,2143.000,0.200,377.000,0.300,41.000,0.500,9.000,1.000,0,5.000,0
"05/12/08","09:13:52",2697.000,"cc",28329.801,6,0.100,2236.000,0.200,413.000,0.300,39.000,0.500,9.000,1.000,0,5.000,0
"05/12/08","09:13:58",2650.000,"cc",28330.395,6,0.100,2177.000,0.200,430.000,0.300,41.000,0.500,2.000,1.000,0,5.000,0
"05/12/08","09:14:04",2517.000,"cc",28314.365,6,0.100,2068.000,0.200,405.000,0.300,36.000,0.500,8.000,1.000,0,5.000,0
"05/12/08","09:14:10",2868.000,"cc",28349.971,6,0.100,2343.000,0.200,474.000,0.300,45.000,0.500,6.000,1.000,0,5.000,0
"05/12/08","09:14:16",2553.000,"cc",28323.565,6,0.100,2103.000,0.200,405.000,0.300,39.000,0.500,6.000,1.000,0,5.000,0
"05/12/08","09:14:22",2322.000,"cc",28314.293,6,0.100,1909.000,0.200,390.000,0.300,20.000,0.500,3.000,1.000,0,5.000,0
"05/12/08","09:14:28",2271.000,"cc",28290.418,6,0.100,1891.000,0.200,339.000,0.300,31.000,0.500,10.000,1.000,0,5.000,0
"05/12/08","09:14:34",2383.000,"cc",28351.725,6,0.100,1965.000,0.200,374.000,0.300,39.000,0.500,5.000,1.000,0,5.000,0
"05/12/08","09:14:40",2863.000,"cc",28299.783,6,0.100,2348.000,0.200,472.000,0.300,37.000,0.500,5.000,1.000,1.000,5.000,0
"05/12/08","09:14:46",2921.000,"cc",28359.375,6,0.100,2406.000,0.200,478.000,0.300,33.000,0.500,3.000,1.000,1.000,5.000,0
"05/12/08","09:14:52",4086.000,"cc",28338.158,6,0.100,3451.000,0.200,569.000,0.300,52.000,0.500,14.000,1.000,0,5.000,0
"05/12/08","09:14:58",4779.000,"cc",28289.131,6,0.100,4016.000,0.200,690.000,0.300,62.000,0.500,11.000,1.000,0,5.000,0
"05/12/08","09:15:04",4915.000,"cc",28302.553,6,0.100,4131.000,0.200,710.000,0.300,65.000,0.500,8.000,1.000,1.000,5.000,0
"05/12/08","09:15:10",6189.000,"cc",28297.416,6,0.100,5196.000,0.200,908.000,0.300,80.000,0.500,3.000,1.000,2.000,5.000,0
"05/12/08","09:15:16",7386.000,"cc",28334.000,6,0.100,6273.000,0.200,1020.000,0.300,77.000,0.500,15.000,1.000,1.000,5.000,0
"05/12/08","09:15:22",5573.000,"cc",28372.555,6,0.100,4628.000,0.200,871.000,0.300,69.000,0.500,5.000,1.000,0,5.000,0
"05/12/08","09:15:28",10772.000,"cc",28260.346,6,0.100,9164.000,0.200,1485.000,0.300,106.000,0.500,16.000,1.000,1.000,5.000,0
"05/12/08","09:15:34",6217.000,"cc",28359.551,6,0.100,5207.000,0.200,929.000,0.300,72.000,0.500,8.000,1.000,1.000,5.000,0
"05/12/08","09:15:40",5746.000,"cc",28312.412,6,0.100,4868.000,0.200,807.000,0.300,61.000,0.500,9.000,1.000,1.000,5.000,0
"05/12/08","09:15:46",5997.000,"cc",28316.615,6,0.100,5024.000,0.200,886.000,0.300,74.000,0.500,13.000,1.000,0,5.000,0
"05/12/08","09:15:52",6181.000,"cc",28314.471,6,0.100,5180.000,0.200,915.000,0.300,75.000,0.500,10.000,1.000,1.000,5.000,0
"05/12/08","09:15:58",4649.000,"cc",28312.371,6,0.100,3916.000,0.200,667.000,0.300,54.000,0.500,11.000,1.000,1.000,5.000,0
"05/12/08","09:16:04",5419.000,"cc",28296.611,6,0.100,4543.000,0.200,799.000,0.300,66.000,0.500,11.000,1.000,0,5.000,0
"05/12/08","09:16:10",3336.000,"cc",28298.277,6,0.100,2770.000,0.200,504.000,0.300,54.000,0.500,7.000,1.000,1.000,5.000,0
"05/12/08","09:16:16",6805.000,"cc",28366.703,6,0.100,5707.000,0.200,1000.000,0.300,89.000,0.500,8.000,1.000,1.000,5.000,0
"05/12/08","09:16:22",5986.000,"cc",28323.662,6,0.100,5029.000,0.200,878.000,0.300,71.000,0.500,8.000,1.000,0,5.000,0
"05/12/08","09:16:28",7796.000,"cc",28265.535,6,0.100,6585.000,0.200,1105.000,0.300,95.000,0.500,10.000,1.000,1.000,5.000,0
"05/12/08","09:16:34",7155.000,"cc",28300.065,6,0.100,6059.000,0.200,1005.000,0.300,84.000,0.500,7.000,1.000,0,5.000,0
"05/12/08","09:16:40",4849.000,"cc",28322.895,6,0.100,4027.000,0.200,762.000,0.300,52.000,0.500,7.000,1.000,1.000,5.000,0
"05/12/08","09:16:46",3894.000,"cc",28360.943,6,0.100,3222.000,0.200,615.000,0.300,50.000,0.500,7.000,1.000,0,5.000,0
"05/12/08","09:16:52",4700.000,"cc",28280.182,6,0.100,3896.000,0.200,716.000,0.300,77.000,0.500,11.000,1.000,0,5.000,0
"05/12/08","09:16:58",6987.000,"cc",28331.219,6,0.100,5880.000,0.200,1008.000,0.300,92.000,0.500,7.000,1.000,0,5.000,0
"05/12/08","09:17:04",6807.000,"cc",28290.859,6,0.100,5730.000,0.200,993.000,0.300,80.000,0.500,4.000,1.000,0,5.000,0
"05/12/08","09:17:10",6772.000,"cc",28310.176,6,0.100,5726.000,0.200,957.000,0.300,83.000,0.500,6.000,1.000,0,5.000,0
"05/12/08","09:17:16",5330.000,"cc",28334.576,6,0.100,4468.000,0.200,811.000,0.300,45.000,0.500,6.000,1.000,0,5.000,0
"05/12/08","09:17:22",5210.000,"cc",28342.348,6,0.100,4378.000,0.200,772.000,0.300,51.000,0.500,9.000,1.000,0,5.000,0
"05/12/08","09:17:28",6658.000,"cc",28320.346,6,0.100,5563.000,0.200,1010.000,0.300,74.000,0.500,11.000,1.000,0,5.000,0
"05/12/08","09:17:34",6250.000,"cc",28289.531,6,0.100,5286.000,0.200,877.000,0.300,81.000,0.500,6.000,1.000,0,5.000,0
"05/12/08","09:17:40",8223.000,"cc",28307.113,6,0.100,6983.000,0.200,1146.000,0.300,85.000,0.500,8.000,1.000,1.000,5.000,0
"05/12/08","09:17:46",6391.000,"cc",28336.377,6,0.100,5335.000,0.200,951.000,0.300,91.000,0.500,14.000,1.000,0,5.000,0
"05/12/08","09:17:52",4104.000,"cc",28319.158,6,0.100,3385.000,0.200,645.000,0.300,70.000,0.500,4.000,1.000,0,5.000,0
"05/12/08","09:17:58",3237.000,"cc",28325.947,6,0.100,2668.000,0.200,521.000,0.300,44.000,0.500,3.000,1.000,1.000,5.000,0
"05/12/08","09:18:04",4156.000,"cc",28325.643,6,0.100,3441.000,0.200,657.000,0.300,50.000,0.500,8.000,1.000,0,5.000,0
"05/12/08","09:18:10",4793.000,"cc",28309.537,6,0.100,3932.000,0.200,771.000,0.300,72.000,0.500,16.000,1.000,2.000,5.000,0
"05/12/08","09:18:16",7496.000,"cc",28343.266,6,0.100,6255.000,0.200,1125.000,0.300,100.000,0.500,16.000,1.000,0,5.000,0
"05/12/08","09:18:22",7975.000,"cc",28332.109,6,0.100,6642.000,0.200,1202.000,0.300,113.000,0.500,17.000,1.000,1.000,5.000,0
"05/12/08","09:18:28",6378.000,"cc",28280.541,6,0.100,5352.000,0.200,940.000,0.300,75.000,0.500,10.000,1.000,1.000,5.000,0
"05/12/08","09:18:34",8148.000,"cc",28277.090,6,0.100,6882.000,0.200,1157.000,0.300,102.000,0.500,6.000,1.000,1.000,5.000,0
"05/12/08","09:18:40",7645.000,"cc",28345.594,6,0.100,6429.000,0.200,1107.000,0.300,101.000,0.500,8.000,1.000,0,5.000,0
"05/12/08","09:18:46",10697.000,"cc",28306.850,6,0.100,9068.000,0.200,1503.000,0.300,116.000,0.500,10.000,1.000,0,5.000,0